Location: Oberkirch
(48.5323°N, 8.0787°E)
Time: 16:28:53
(UTC+00:00)

SL-24 R/B - RUBIN 2 - Pass Details

Date: 14 February 2026
Orbit: 603 x 984 km, 64.6° (Epoch: 8 March)

Event Time Altitude Azimuth Distance (km) Brightness Sun altitude
Exits shadow 05:01:29 14° 324° (NW) 1,765 5.5 -16.4°
Maximum altitude 05:02:22 15° 337° (NNW) 1,715 5.6 -16.2°
Drops below altitude 10° 05:04:59 10° 13° (NNE) 1,994 6.3 -15.8°
Sets 05:08:07 0° 38° (NE) 2,874 7.5 -15.3°
